Gainesville, FL

3:05 AM EDT on October 22, 2017 (GMT -0400)
Gainesville Regional

Weather History for KGNV - November, 2014

Change the Weather History Date:

Sunday, November 23, 2014

  Actual Average Record
Temperature  
Mean Temperature 74 °F 61 °F  
Max Temperature 82 °F 73 °F 88 °F (1906)
Min Temperature 66 °F 49 °F 27 °F (2000)
Degree Days  
Heating Degree Days 0 6  
Month to date heating degree days 179 89  
Since 1 July heating degree days 197 116  
Cooling Degree Days 9 2  
Month to date cooling degree days 17 59  
Year to date cooling degree days 2548 2609  
Growing Degree Days 24 (Base 50)    
Moisture  
Dew Point 69 °F    
Average Humidity 85    
Maximum Humidity 100    
Minimum Humidity 69    
Precipitation  
Precipitation 0.21 in 0.06 in 0.93 in (1977)
Month to date precipitation 0.79 1.57  
Year to date precipitation 46.68 44.44  
Snow  
Snow 0.00 in 0.00 in 0.00 in ()
Month to date snowfall 0.0 0.0  
Since 1 July snowfall 0.0 0.0  
Since 1 September snowfall 0.0 0.0  
Snow Depth 0.00 in    
Sea Level Pressure  
Sea Level Pressure 29.95 in    
Wind  
Wind Speed 9 mph (South)    
Max Wind Speed 17 mph    
Max Gust Speed 25 mph    
Visibility 9 miles    
Events Rain    
T = Trace of Precipitation, MM = Missing Value Source: NWS Daily Summary

Daily Weather History Graph

Daily Weather History Graph

Search for Another Location

Airport or City:

Trip Planner

Search our weather history database for the weather conditions in past years. The results will help you decide how hot, cold, wet, or windy it might be!

Date:

Astronomy

Nov. 23, 2014 Rise Set
Actual Time 7:00 AM EST 5:30 PM EST
Civil Twilight 6:34 AM EST 5:56 PM EST
Nautical Twilight 6:05 AM EST 6:25 PM EST
Astronomical Twilight 5:36 AM EST 6:53 PM EST
Moon 7:56 AM EST (11/23) 6:51 PM EST (11/23)
Length of Visible Light 11h 21m
Length of Day
10h 30m
New Moon, 2% of the Moon is Illuminated
Nov 23
New Moon
Nov 29
First Quarter
Dec 6
Full
Dec 14
Last Quarter
Dec 21
New

Hourly Weather History & Observations

Time (EST) Temp. Heat Index Dew Point Humidity Pressure Visibility Wind Dir Wind Speed Gust Speed Precip Events Conditions
12:53 AM 68.0 °F - 64.0 °F 87% 30.07 in 10.0 mi ESE 13.8 mph - 0.00 in Rain Light Rain
1:53 AM 66.9 °F - 64.9 °F 93% 30.05 in 10.0 mi ESE 9.2 mph - 0.00 in   Overcast
2:53 AM 66.9 °F - 64.9 °F 93% 30.03 in 5.0 mi ESE 6.9 mph - 0.04 in Rain Rain
3:43 AM 66.0 °F - 66.0 °F 100% 30.02 in 5.0 mi ESE 6.9 mph - 0.10 in Rain Light Rain
3:53 AM 66.0 °F - 66.0 °F 100% 30.01 in 4.0 mi SE 5.8 mph - 0.10 in Rain Light Rain
4:20 AM 66.0 °F - 66.0 °F 100% 30.01 in 5.0 mi ESE 5.8 mph - 0.06 in Rain Light Rain
4:53 AM 66.9 °F - 66.0 °F 97% 29.99 in 8.0 mi SE 6.9 mph - 0.07 in Rain Light Rain
5:53 AM 66.9 °F - 66.9 °F 100% 29.99 in 10.0 mi SE 8.1 mph - 0.00 in   Overcast
6:53 AM 68.0 °F - 68.0 °F 100% 29.98 in 10.0 mi SE 9.2 mph - N/A   Overcast
7:53 AM 70.0 °F - 69.1 °F 97% 29.98 in 10.0 mi SE 6.9 mph - N/A   Overcast
8:53 AM 71.1 °F - 70.0 °F 96% 29.99 in 10.0 mi SSE 10.4 mph - N/A   Overcast
9:04 AM 71.1 °F - 70.0 °F 96% 30.00 in 10.0 mi South 8.1 mph - N/A   Overcast
9:21 AM 72.0 °F - 70.0 °F 93% 30.00 in 10.0 mi South 8.1 mph - N/A   Overcast
9:53 AM 72.0 °F - 70.0 °F 93% 29.99 in 10.0 mi SSE 9.2 mph - N/A   Overcast
10:00 AM 72.0 °F - 70.0 °F 93% 30.00 in 10.0 mi SSE 8.1 mph - N/A   Overcast
10:53 AM 75.0 °F - 70.0 °F 84% 29.98 in 10.0 mi SSE 10.4 mph - N/A   Overcast
11:53 AM 78.1 °F - 70.0 °F 76% 29.94 in 10.0 mi South 12.7 mph - N/A   Overcast
12:53 PM 80.1 °F 83.2 °F 70.0 °F 71% 29.89 in 10.0 mi South 10.4 mph 21.9 mph N/A   Overcast
1:12 PM 80.1 °F 83.2 °F 70.0 °F 71% 29.88 in 10.0 mi South 15.0 mph 21.9 mph N/A   Mostly Cloudy
1:53 PM 81.0 °F 84.4 °F 70.0 °F 69% 29.86 in 10.0 mi South 12.7 mph 21.9 mph N/A   Mostly Cloudy
2:53 PM 78.1 °F - 72.0 °F 81% 29.85 in 10.0 mi South 8.1 mph - 0.00 in   Mostly Cloudy
3:53 PM 77.0 °F - 73.0 °F 88% 29.85 in 10.0 mi South 6.9 mph - 0.00 in Rain Light Rain
4:53 PM 77.0 °F - 72.0 °F 84% 29.86 in 10.0 mi SSW 5.8 mph - 0.00 in   Mostly Cloudy
5:53 PM 77.0 °F - 69.1 °F 76% 29.87 in 10.0 mi SW 12.7 mph 23.0 mph N/A   Scattered Clouds
6:53 PM 75.9 °F - 68.0 °F 76% 29.89 in 10.0 mi SW 12.7 mph - N/A   Clear
7:53 PM 75.0 °F - 70.0 °F 84% 29.89 in 10.0 mi SSW 10.4 mph - N/A   Clear
8:53 PM 75.0 °F - 70.0 °F 84% 29.88 in 10.0 mi South 10.4 mph - N/A   Clear
9:53 PM 73.9 °F - 70.0 °F 87% 29.92 in 10.0 mi SSW 8.1 mph - N/A   Partly Cloudy
10:53 PM 73.0 °F - 70.0 °F 90% 29.89 in 10.0 mi SW 8.1 mph - N/A   Scattered Clouds
11:03 PM 73.0 °F - 70.0 °F 90% 29.90 in 10.0 mi SW 8.1 mph - N/A   Mostly Cloudy
11:53 PM 73.0 °F - 71.1 °F 93% 29.88 in 10.0 mi SSW 8.1 mph - N/A   Overcast